www.pogodaiklimat.ru
ПОГОДА в Меркьюри
Время
(UTC), дата
23:53 05.02
00:53 05.02
01:53 05.02
02:53 05.02
03:53 05.02
04:53 05.02
05:53 05.02
06:53 05.02
07:53 06.02
08:53 06.02
09:53 06.02
10:53 06.02
11:53 06.02
12:53 06.02
04:53 07.02
05:53 07.02
06:53 07.02
07:53 08.02
08:53 08.02
09:53 08.02
10:53 08.02
11:53 08.02
12:53 08.02
13:53 08.02
14:53 08.02
15:53 08.02
16:53 08.02
19:53 08.02
20:53 08.02
21:53 08.02
22:53 08.02
23:53 08.02
22:53 20.02
23:53 20.02
00:53 20.02
01:53 20.02
02:53 20.02
03:53 20.02
04:53 20.02
05:53 20.02
06:53 20.02
07:53 21.02
08:53 21.02
09:53 21.02
10:53 21.02
11:53 21.02
12:53 21.02
13:53 21.02
Ветер
(напр.,м/с)
Видим. Явления Облачность Т
(С)
Тd
(С)
f
(%)
Тe
(С)
Тes
(С)
Комфортность P
(гПа)
Po
(гПа)
Тmin
(С)
Tmax
(С)
R
(мм)
R24
(мм)
S
(см)
СВ 3 16 км 2/2 1440 м +12.2 -8.9 22 +11 +12 1016.0 903.3
0 16 км ясно +8.9 -7.8 30 +9 +9 1017.0 903.6
СВ 2 16 км ясно +6.1 -7.8 36 +4 +4 1017.7 904.2
В 4 16 км ясно +6.7 -7.2 36 +4 +4 1018.5 904.8
СВ 1 16 км ясно +5.0 -6.1 44 +4 +4 1018.5 905.1
СВ 4 16 км ясно +5.0 -5.0 48 +1 +1 1018.3 905.1 +3.3 +13.3
0 16 км ясно +4.4 -5.0 50 +4 +4 1018.2 905.1
ЮЗ 1 16 км ясно +2.8 -5.0 56 +1 +1 1018.3 905.4
СВ 3 16 км ясно +3.3 -4.4 57 -0 -0 1018.0 905.4
ЮЗ 2 16 км ясно +3.9 -3.9 57 +1 +1 1017.8 905.1
СВ 4 16 км ясно +2.8 -3.9 61 -2 -2 1018.0 905.4
0 16 км ясно +1.7 -4.4 64 +1 +1 1018.1 905.4 +0.6 +6.1
0 16 км ясно +0.6 -3.9 72 -0 -0 1018.3 905.4
0 16 км ясно +1.7 -3.9 66 +1 +1 1019.0 905.7
С 2 16 км ясно +5.6 -8.9 34 +4 +4 1016.7 904.8 +5.0 +21.1
В 3 16 км ясно +4.4 -9.4 36 +2 +2 1016.6 904.8
0 16 км ясно +4.4 -8.9 37 +4 +4 1015.9 904.2
0 16 км ясно +3.9 -8.9 39 +4 +4 1015.2 903.6
0 16 км ясно +3.9 -8.9 39 +4 +4 1014.6 903.0
ЮВ 3 16 км ясно +2.2 -8.9 44 -1 -1 1014.6 903.0
В 2 16 км ясно +2.2 -8.9 44 -1 -1 1014.5 903.0 +2.2 +6.1
В 1 16 км ясно +1.1 -8.3 49 -1 -1 1014.2 902.4
В 4 16 км ясно 0.0 -8.9 51 -5 -5 1014.7 902.4
В 1 16 км ясно +1.1 -8.9 47 -1 -1 1014.8 902.4
В 3 16 км ясно +4.4 -8.3 39 +2 +2 1014.6 902.1
нст 1 16 км ясно +7.8 -8.3 31 +7 +9 1014.2 902.1
0 16 км ясно +12.2 -8.3 23 +12 +18 1013.8 901.8 -0.6 +12.8
ЮЗ 4 16 км ясно +17.2 -7.8 17 +17 +22 1009.8 898.8
ЮЗ 4
{8}
16 км ясно +18.3 -7.8 16 +18 +22 1008.4 897.6
З 4 16 км ясно +18.9 -7.2 16 +19 +22 1007.8 897.0
ЮЗ 5
{10}
16 км ясно +18.9 -7.2 16 +18 +19 1006.7 896.1 +12.2 +20.0
ЮЗ 7 16 км ясно +17.2 -7.2 18 +16 +16 1006.4 895.5
ЮВ 8 16 км ясно +16.1 -13.3 12 +15 +15 1020.0 907.5 +11.1 +16.7
ЮВ 7 16 км ясно +15.0 -13.3 13 +13 +13 1020.1 907.5
В 4 16 км ясно +12.2 -12.8 16 +11 +11 1020.7 907.8
В 4 16 км ясно +10.6 -12.8 18 +9 +9 1021.4 908.4
нст 2 16 км ясно +10.0 -12.8 19 +9 +9 1021.3 908.4
С 4 16 км ясно +8.3 -12.8 21 +6 +6 1021.7 908.7
В 3 16 км ясно +7.2 -12.2 24 +5 +5 1021.4 908.7 +6.1 +16.1
В 1 16 км ясно +8.3 -12.2 22 +8 +8 1021.2 908.4
В 3 16 км ясно +7.8 -11.7 24 +6 +6 1021.3 908.7
СВ 3 16 км ясно +6.7 -12.2 24 +5 +5 1021.2 908.7
СВ 4 16 км ясно +5.6 -12.2 26 +3 +3 1020.4 908.1
В 3 16 км ясно +6.7 -12.2 24 +5 +5 1019.8 907.5
В 3 16 км ясно +5.6 -11.7 28 +3 +3 1019.9 907.5 +3.3 +8.9
нст 3 16 км ясно +3.9 -11.7 31 +1 +1 1020.4 907.8
В 1 16 км ясно +6.7 -11.7 26 +6 +6 1020.7 908.1
В 3 16 км ясно +3.9 -11.7 31 +1 +1 1021.5 908.4
Местоположение метеостанции Desert Rock Airport: широта 36.6207 долгота -116.0287 высота над уровнем моря 987 м.
В архиве по умолчанию представлена погода в Меркьюри за последние 1-2 суток. Обновление информации о фактической погоде в базе происходит ежечасно! Архивные данные за месяц целиком и за предыдущие месяцы Вы можете получить, выбрав интересующий диапазон дат из раскрывающегося списка и нажав кнопку "Ввод!".
Внимание! Архив погоды МЕТАР в базе сайта по станциям, не включенным в климатический монитор, хранится не более 60 дней. Нет смысла пытаться выбрать более раннюю дату.
*Определитесь, кто Вы:
Внимание! Время в таблицах - всемирное. Для получения местного времени необходимо прибавить поправку, которая равна ч.
Смотрите также архив погоды в соседних городах и на ближайших метеорологических станциях:
Партнеры нашего сайта:      
Пояснения к столбцам:
  • Ветер - указаны скорость ветра в м/с - средняя за 10 мин, порывы в срок и между сроками (в фигурных скобках) и направление, откуда дует ветер: С - северный,
  • СВ - северо-восточный, В - восточный, ЮВ - юго-восточный, Ю - южный, ЮЗ - юго-западный, З - западный, СЗ - северо-западный.
  • Видимость - горизонтальная дальность видимости в метрах или километрах. При видимости от 1 до 10 км при отсутствии осадков обычно наблюдается дымка, при ухудшении видимости до 1 км и менее - туман. В сухую погоду видимость может ухудшаться дымом, пылью или мглою.
  • Явления - указаны атмосферные явления, наблюдавшиеся в срок или в последний час перед сроком; фигурными скобками обозначены явления, наблюдавшиеся между сроками (за 1-3 часа до срока); квадратными скобками обозначены град или гололедные отложения с указанием их диаметра в мм.
  • Облачность - указаны через наклонную черту общая и нижняя облачность в баллах и высота нижней границы облаков в метрах; квадратными скобками обозначены формы облаков: Ci - перистые, Cs - перисто-слоистые, Cc - перисто-кучевые, Ac - высококучевые, As - высокослоистые, Sc - слоисто-кучевые, Ns - слоисто-дождевые, Cu - кучевые, Cb - кучево-дождевые. Подробнее классификацию облаков см. в Атласе облаков (PDF).
  • T - Температура воздуха - температура, измеренная на высоте 2 м над землей.
  • Td - Температура точки росы - температура, при понижении до которой содержащийся в воздухе водяной пар достигнет насыщения.
  • f - Относительная влажность воздуха - влажноcть воздуха, измеренная на высоте 2 м над землей.
  • Te - Эффективная температура - температура, которую ощущает одетый по сезону человек в тени. Характеристика душности погоды. При расчете учитывается влияние влажности воздуха и скорости ветра на теплоощущения человека.
  • Tes - Эффективная температура на солнце - температура, которую ощущает человек, с поправкой на солнечный нагрев. Характеристика знойности погоды. Зависит от высоты солнца над горизонтом, облачности и скорости ветра. Ночью, в пасмурную погоду, а также при ветре 12 м/с и более поправка равна нулю.
  • P - Атмосферное давление - приведенное к уровню моря атмосферное давление.
  • Po - Атмосферное давление - измеренное на уровне метеостанции атмосферное давление.
  • Tmin - Минимальная температура - минимум температуры воздуха на высоте 2 м над землей.
  • Tmax - Максимальная температура - максимум температуры воздуха на высоте 2 м над землей.
  • R - Количество осадков - Количество выпавших осадков за период времени, мм. При наведении курсора мыши на число - период времени, за который выпало указанное количество осадков.
  • R24 - Количество осадков - Количество выпавших осадков за 24 часа, мм.
  • S - Снежный покров - Высота снежного покрова, см. При наведении курсора мыши на число - состояние снежного покрова и степень покрытия местности в баллах.